Time,TemperatureF,DewpointF,PressureIn,WindDirection,WindDirectionDegrees,WindSpeedMPH,WindSpeedGustMPH,Humidity,HourlyPrecipIn,Conditions,Clouds,dailyrainin,SoftwareType,DateUTC
2013-08-07 00:01:00,70.5,67.1,30.18,SE,135,0.0,0.0,89,0.00,,,0.01,meteohub,2013-08-07 04:01:00,
2013-08-07 00:02:00,70.5,67.1,30.18,SE,135,0.0,0.0,89,0.00,,,0.01,meteohub,2013-08-07 04:02:00,
2013-08-07 00:08:00,70.5,67.1,30.18,SE,135,0.0,0.0,89,0.00,,,0.00,meteohub,2013-08-07 04:08:00,
2013-08-07 00:13:00,70.3,66.9,30.18,SE,135,0.0,0.0,89,0.00,,,0.00,meteohub,2013-08-07 04:13:00,
2013-08-07 00:18:00,70.3,66.9,30.18,SE,135,0.0,0.0,89,0.00,,,0.00,meteohub,2013-08-07 04:18:00,
2013-08-07 00:23:00,70.3,66.9,30.18,SE,135,0.0,0.0,89,0.00,,,0.00,meteohub,2013-08-07 04:23:00,
2013-08-07 00:28:00,70.3,66.9,30.19,SE,135,0.0,0.0,89,0.00,,,0.00,meteohub,2013-08-07 04:28:00,
2013-08-07 00:33:00,70.3,66.9,30.19,SE,135,0.0,0.0,89,0.00,,,0.00,meteohub,2013-08-07 04:33:00,
2013-08-07 00:38:00,70.3,66.9,30.18,SE,135,0.0,0.0,89,0.00,,,0.00,meteohub,2013-08-07 04:38:00,
2013-08-07 00:44:00,70.5,67.5,30.18,SE,135,0.0,0.0,90,0.00,,,0.00,meteohub,2013-08-07 04:44:00,
2013-08-07 00:49:00,70.7,67.6,30.18,SE,135,0.0,0.0,90,0.00,,,0.00,meteohub,2013-08-07 04:49:00,
2013-08-07 00:54:00,70.7,67.6,30.18,SE,135,0.0,0.0,90,0.00,,,0.00,meteohub,2013-08-07 04:54:00,
2013-08-07 00:59:00,70.9,67.8,30.18,SE,135,0.0,0.0,90,0.00,,,0.00,meteohub,2013-08-07 04:59:00,
2013-08-07 01:04:00,70.9,67.8,30.18,SE,135,0.0,0.0,90,0.00,,,0.00,meteohub,2013-08-07 05:04:00,
2013-08-07 01:09:00,71.1,68.0,30.18,SE,135,0.0,0.0,90,0.00,,,0.00,meteohub,2013-08-07 05:09:00,
2013-08-07 01:14:00,71.1,67.6,30.18,SE,135,0.0,0.0,89,0.00,,,0.00,meteohub,2013-08-07 05:14:00,
2013-08-07 01:19:00,71.2,67.8,30.18,SE,135,0.0,0.0,89,0.00,,,0.00,meteohub,2013-08-07 05:19:00,
2013-08-07 01:24:00,71.2,67.8,30.17,SE,135,0.0,0.0,89,0.00,,,0.00,meteohub,2013-08-07 05:24:00,
2013-08-07 01:29:00,71.4,68.0,30.17,SE,135,0.0,0.0,89,0.00,,,0.00,meteohub,2013-08-07 05:29:00,
2013-08-07 01:34:00,71.4,68.0,30.17,SE,135,0.0,0.0,89,0.00,,,0.00,meteohub,2013-08-07 05:34:00,
2013-08-07 01:39:00,71.4,67.6,30.17,SE,135,0.0,0.0,88,0.00,,,0.00,meteohub,2013-08-07 05:39:00,
2013-08-07 01:45:00,71.4,67.6,30.17,SE,135,0.0,0.0,88,0.00,,,0.00,meteohub,2013-08-07 05:45:00,
2013-08-07 01:50:00,71.4,67.6,30.17,SE,135,0.0,0.0,88,0.00,,,0.00,meteohub,2013-08-07 05:50:00,
2013-08-07 01:55:00,71.6,67.5,30.17,SE,135,0.0,0.0,87,0.00,,,0.00,meteohub,2013-08-07 05:55:00,
2013-08-07 02:00:00,71.6,67.5,30.17,SE,135,0.0,0.0,87,0.00,,,0.00,meteohub,2013-08-07 06:00:00,
2013-08-07 02:05:00,71.6,67.1,30.17,SE,135,0.0,0.0,86,0.00,,,0.00,meteohub,2013-08-07 06:05:00,
2013-08-07 02:10:00,71.6,67.5,30.17,SE,135,0.0,0.0,87,0.00,,,0.00,meteohub,2013-08-07 06:10:00,
2013-08-07 02:15:00,71.6,67.5,30.17,SE,135,0.0,0.0,87,0.00,,,0.00,meteohub,2013-08-07 06:15:00,
2013-08-07 02:20:00,71.6,67.5,30.18,SE,135,0.0,0.0,87,0.00,,,0.00,meteohub,2013-08-07 06:20:00,
2013-08-07 02:26:00,71.6,67.5,30.18,SE,135,0.0,0.0,87,0.00,,,0.00,meteohub,2013-08-07 06:26:00,
2013-08-07 02:31:00,71.6,67.1,30.18,SE,135,0.0,0.0,86,0.00,,,0.00,meteohub,2013-08-07 06:31:00,
2013-08-07 02:36:00,71.6,67.1,30.18,SE,135,0.0,0.0,86,0.00,,,0.00,meteohub,2013-08-07 06:36:00,
2013-08-07 02:41:00,71.6,67.1,30.18,SE,135,0.0,0.0,86,0.00,,,0.00,meteohub,2013-08-07 06:41:00,
2013-08-07 02:46:00,71.6,67.1,30.18,SE,135,0.0,0.0,86,0.00,,,0.00,meteohub,2013-08-07 06:46:00,
2013-08-07 02:51:00,71.6,67.1,30.18,SE,135,0.0,0.0,86,0.00,,,0.00,meteohub,2013-08-07 06:51:00,
2013-08-07 02:56:00,71.6,67.5,30.18,SE,135,0.0,0.0,87,0.00,,,0.00,meteohub,2013-08-07 06:56:00,
2013-08-07 03:01:00,71.6,67.5,30.18,SE,135,0.0,0.0,87,0.00,,,0.00,meteohub,2013-08-07 07:01:00,
2013-08-07 03:06:00,71.6,67.1,30.18,SE,135,0.0,0.0,86,0.00,,,0.00,meteohub,2013-08-07 07:06:00,
2013-08-07 03:12:00,71.4,67.3,30.18,SE,135,0.0,0.0,87,0.00,,,0.00,meteohub,2013-08-07 07:12:00,
2013-08-07 03:17:00,71.4,67.6,30.18,SE,135,0.0,0.0,88,0.00,,,0.00,meteohub,2013-08-07 07:17:00,
2013-08-07 03:22:00,71.4,67.6,30.18,SE,135,0.0,0.0,88,0.00,,,0.00,meteohub,2013-08-07 07:22:00,
2013-08-07 03:27:00,71.4,67.6,30.18,SE,135,0.0,0.0,88,0.00,,,0.00,meteohub,2013-08-07 07:27:00,
2013-08-07 03:32:00,71.4,67.6,30.18,SE,135,0.0,0.0,88,0.00,,,0.00,meteohub,2013-08-07 07:32:00,
2013-08-07 03:37:00,71.4,67.6,30.18,SE,135,0.0,0.0,88,0.00,,,0.00,meteohub,2013-08-07 07:37:00,
2013-08-07 03:42:00,71.4,67.6,30.18,SE,135,0.0,0.0,88,0.00,,,0.00,meteohub,2013-08-07 07:42:00,
2013-08-07 03:47:00,71.4,67.6,30.18,SE,135,0.0,0.0,88,0.00,,,0.00,meteohub,2013-08-07 07:47:00,
2013-08-07 03:52:00,71.6,67.5,30.18,SE,135,0.0,0.0,87,0.00,,,0.00,meteohub,2013-08-07 07:52:00,
2013-08-07 03:57:00,71.6,67.5,30.18,SE,135,0.0,0.0,87,0.00,,,0.00,meteohub,2013-08-07 07:57:00,
2013-08-07 04:02:00,71.6,67.1,30.18,SE,135,0.0,0.0,86,0.00,,,0.00,meteohub,2013-08-07 08:02:00,
2013-08-07 04:08:00,71.6,67.1,30.18,SE,135,0.0,0.0,86,0.00,,,0.00,meteohub,2013-08-07 08:08:00,
2013-08-07 04:13:00,71.8,67.3,30.18,SE,135,0.0,0.0,86,0.00,,,0.00,meteohub,2013-08-07 08:13:00,
2013-08-07 04:18:00,71.8,67.3,30.18,SE,135,0.0,0.0,86,0.00,,,0.00,meteohub,2013-08-07 08:18:00,
2013-08-07 04:23:00,71.8,67.3,30.18,SE,135,0.0,0.0,86,0.00,,,0.00,meteohub,2013-08-07 08:23:00,
2013-08-07 04:28:00,71.8,67.3,30.18,SE,135,0.0,0.0,86,0.00,,,0.00,meteohub,2013-08-07 08:28:00,
2013-08-07 04:33:00,72.0,67.5,30.18,SE,135,0.0,0.0,86,0.00,,,0.00,meteohub,2013-08-07 08:33:00,
2013-08-07 04:38:00,72.0,67.5,30.18,SE,135,0.0,0.0,86,0.00,,,0.00,meteohub,2013-08-07 08:38:00,
2013-08-07 04:43:00,72.0,67.3,30.18,SE,135,0.0,0.0,85,0.00,,,0.00,meteohub,2013-08-07 08:43:00,
2013-08-07 04:48:00,72.0,67.3,30.18,SE,135,0.0,0.0,85,0.00,,,0.00,meteohub,2013-08-07 08:48:00,
2013-08-07 04:54:00,72.0,67.3,30.18,SE,135,0.0,0.0,85,0.00,,,0.00,meteohub,2013-08-07 08:54:00,
2013-08-07 04:59:00,72.0,66.9,30.18,SE,135,0.0,0.0,84,0.00,,,0.00,meteohub,2013-08-07 08:59:00,
2013-08-07 05:04:00,72.1,67.1,30.18,SE,135,0.0,0.0,84,0.00,,,0.00,meteohub,2013-08-07 09:04:00,
2013-08-07 05:09:00,72.0,66.9,30.19,SE,135,0.0,0.0,84,0.00,,,0.00,meteohub,2013-08-07 09:09:00,
2013-08-07 05:14:00,72.0,66.9,30.19,SE,135,0.0,0.0,84,0.00,,,0.00,meteohub,2013-08-07 09:14:00,
2013-08-07 05:19:00,71.8,66.7,30.18,SE,135,0.0,0.0,84,0.00,,,0.00,meteohub,2013-08-07 09:19:00,
2013-08-07 05:24:00,71.8,66.7,30.19,SE,135,0.0,0.0,84,0.00,,,0.00,meteohub,2013-08-07 09:24:00,
2013-08-07 05:29:00,71.6,66.6,30.19,SE,135,0.0,0.0,84,0.00,,,0.00,meteohub,2013-08-07 09:29:00,
2013-08-07 05:34:00,71.6,66.6,30.19,SE,135,0.0,0.0,84,0.00,,,0.00,meteohub,2013-08-07 09:34:00,
2013-08-07 05:39:00,71.6,66.6,30.19,SE,135,0.0,0.0,84,0.00,,,0.00,meteohub,2013-08-07 09:39:00,
2013-08-07 05:45:00,71.6,66.9,30.19,SE,135,0.0,0.0,85,0.00,,,0.00,meteohub,2013-08-07 09:45:00,
2013-08-07 05:50:00,71.8,66.7,30.19,SE,135,0.0,0.0,84,0.00,,,0.00,meteohub,2013-08-07 09:50:00,
2013-08-07 05:55:00,71.8,66.7,30.19,SE,135,0.0,0.0,84,0.00,,,0.00,meteohub,2013-08-07 09:55:00,
2013-08-07 06:00:00,71.8,66.7,30.19,SE,135,0.0,0.0,84,0.00,,,0.00,meteohub,2013-08-07 10:00:00,
2013-08-07 06:05:00,72.0,66.6,30.19,SE,135,0.0,0.0,83,0.00,,,0.00,meteohub,2013-08-07 10:05:00,
2013-08-07 06:10:00,72.0,66.6,30.19,SE,135,0.0,0.0,83,0.00,,,0.00,meteohub,2013-08-07 10:10:00,
2013-08-07 06:15:00,72.0,66.6,30.19,SE,135,0.0,0.0,83,0.00,,,0.00,meteohub,2013-08-07 10:15:00,
2013-08-07 06:20:00,72.0,66.6,30.19,SE,135,0.0,0.0,83,0.00,,,0.00,meteohub,2013-08-07 10:20:00,
2013-08-07 06:25:00,72.1,66.7,30.19,SE,135,0.0,0.0,83,0.00,,,0.00,meteohub,2013-08-07 10:25:00,
2013-08-07 06:31:00,72.1,66.7,30.19,SE,135,0.0,0.0,83,0.00,,,0.00,meteohub,2013-08-07 10:31:00,
2013-08-07 06:36:00,72.1,66.7,30.19,SE,135,0.0,0.0,83,0.00,,,0.00,meteohub,2013-08-07 10:36:00,
2013-08-07 06:41:00,72.1,66.7,30.19,SE,135,0.0,0.0,83,0.00,,,0.00,meteohub,2013-08-07 10:41:00,
2013-08-07 06:46:00,72.1,66.7,30.20,SE,135,0.0,0.0,83,0.00,,,0.00,meteohub,2013-08-07 10:46:00,
2013-08-07 06:51:00,72.1,66.7,30.20,SE,135,0.0,0.0,83,0.00,,,0.00,meteohub,2013-08-07 10:51:00,
2013-08-07 06:56:00,72.1,66.7,30.20,SE,135,0.0,0.0,83,0.00,,,0.00,meteohub,2013-08-07 10:56:00,
2013-08-07 07:01:00,72.1,66.7,30.20,SE,135,0.0,0.0,83,0.00,,,0.00,meteohub,2013-08-07 11:01:00,
2013-08-07 07:06:00,72.3,66.9,30.20,SE,135,0.0,0.0,83,0.00,,,0.00,meteohub,2013-08-07 11:06:00,
2013-08-07 07:11:00,72.3,66.9,30.20,SE,135,0.0,0.0,83,0.00,,,0.00,meteohub,2013-08-07 11:11:00,
2013-08-07 07:16:00,72.3,66.9,30.20,SE,135,0.0,0.0,83,0.00,,,0.00,meteohub,2013-08-07 11:16:00,
2013-08-07 07:22:00,72.3,66.9,30.20,SE,135,0.0,0.0,83,0.00,,,0.00,meteohub,2013-08-07 11:22:00,
2013-08-07 07:27:00,72.5,67.1,30.20,SE,135,0.0,0.0,83,0.00,,,0.00,meteohub,2013-08-07 11:27:00,
2013-08-07 07:32:00,72.5,67.1,30.20,SE,135,0.0,0.0,83,0.00,,,0.00,meteohub,2013-08-07 11:32:00,
2013-08-07 07:38:00,72.5,67.1,30.20,SE,135,0.0,0.0,83,0.00,,,0.00,meteohub,2013-08-07 11:38:00,
2013-08-07 07:43:00,72.7,67.3,30.20,SE,135,0.0,0.0,83,0.00,,,0.00,meteohub,2013-08-07 11:43:00,
2013-08-07 07:48:00,72.7,66.9,30.20,SE,135,0.0,0.0,82,0.00,,,0.00,meteohub,2013-08-07 11:48:00,
2013-08-07 07:53:00,72.7,66.9,30.20,SE,135,0.0,0.0,82,0.00,,,0.00,meteohub,2013-08-07 11:53:00,
2013-08-07 07:59:00,72.9,67.1,30.20,SE,135,0.0,0.0,82,0.00,,,0.00,meteohub,2013-08-07 11:59:00,
2013-08-07 08:04:00,72.9,67.1,30.21,SE,135,0.0,0.0,82,0.00,,,0.00,meteohub,2013-08-07 12:04:00,
2013-08-07 08:10:00,73.0,67.3,30.21,SE,135,0.0,0.0,82,0.00,,,0.00,meteohub,2013-08-07 12:10:00,
2013-08-07 08:15:00,73.0,66.9,30.21,SE,135,0.0,0.0,81,0.00,,,0.00,meteohub,2013-08-07 12:15:00,
2013-08-07 08:20:00,73.2,67.1,30.21,SE,135,0.0,0.0,81,0.00,,,0.00,meteohub,2013-08-07 12:20:00,
2013-08-07 08:25:00,73.4,67.3,30.21,SE,135,0.0,0.0,81,0.00,,,0.00,meteohub,2013-08-07 12:25:00,
2013-08-07 08:30:00,73.6,67.5,30.21,SE,135,0.0,0.0,81,0.00,,,0.00,meteohub,2013-08-07 12:30:00,
2013-08-07 08:36:00,73.8,67.6,30.21,SE,135,0.0,0.0,81,0.00,,,0.00,meteohub,2013-08-07 12:36:00,
2013-08-07 08:41:00,73.9,67.8,30.21,SE,135,0.0,0.0,81,0.00,,,0.00,meteohub,2013-08-07 12:41:00,
2013-08-07 08:46:00,74.1,67.6,30.21,SE,135,0.0,1.0,80,0.00,,,0.00,meteohub,2013-08-07 12:46:00,
2013-08-07 08:51:00,74.3,67.6,30.22,SE,135,0.0,1.0,80,0.00,,,0.00,meteohub,2013-08-07 12:51:00,
2013-08-07 08:56:00,74.3,67.6,30.22,SE,135,0.0,1.0,80,0.00,,,0.00,meteohub,2013-08-07 12:56:00,
2013-08-07 09:02:00,74.5,67.8,30.22,SE,135,0.0,0.0,80,0.00,,,0.00,meteohub,2013-08-07 13:02:00,
2013-08-07 09:07:00,74.5,67.8,30.22,SE,135,0.0,0.0,80,0.00,,,0.00,meteohub,2013-08-07 13:07:00,
2013-08-07 09:12:00,74.7,68.0,30.22,SE,135,0.0,0.0,80,0.00,,,0.00,meteohub,2013-08-07 13:12:00,
2013-08-07 09:17:00,74.8,68.2,30.22,SE,135,0.0,0.0,80,0.00,,,0.00,meteohub,2013-08-07 13:17:00,
2013-08-07 09:23:00,75.2,68.2,30.21,SE,135,0.0,0.0,79,0.00,,,0.00,meteohub,2013-08-07 13:23:00,
2013-08-07 09:28:00,75.4,68.0,30.22,SE,135,0.0,0.0,78,0.00,,,0.00,meteohub,2013-08-07 13:28:00,
2013-08-07 09:34:00,75.6,68.2,30.22,SE,135,0.0,0.0,78,0.00,,,0.00,meteohub,2013-08-07 13:34:00,
2013-08-07 09:39:00,75.6,67.8,30.22,SE,135,0.0,0.0,77,0.00,,,0.00,meteohub,2013-08-07 13:39:00,
2013-08-07 09:44:00,75.7,68.4,30.22,SE,135,0.0,0.0,78,0.00,,,0.00,meteohub,2013-08-07 13:44:00,
2013-08-07 09:49:00,76.1,68.7,30.22,SE,135,0.0,0.0,78,0.00,,,0.00,meteohub,2013-08-07 13:49:00,
2013-08-07 09:54:00,76.8,69.1,30.22,SE,135,0.0,0.0,77,0.00,,,0.00,meteohub,2013-08-07 13:54:00,
2013-08-07 09:59:00,77.2,68.7,30.22,SE,135,0.0,0.0,75,0.00,,,0.00,meteohub,2013-08-07 13:59:00,
2013-08-07 10:04:00,77.5,68.9,30.22,SE,135,0.0,0.0,75,0.00,,,0.00,meteohub,2013-08-07 14:04:00,
2013-08-07 10:09:00,78.1,69.4,30.22,SE,135,0.0,0.0,75,0.00,,,0.00,meteohub,2013-08-07 14:09:00,
2013-08-07 10:14:00,78.4,69.1,30.22,SE,135,2.0,0.0,73,0.00,,,0.00,meteohub,2013-08-07 14:14:00,
2013-08-07 10:19:00,78.6,69.3,30.22,SE,135,0.0,0.0,73,0.00,,,0.00,meteohub,2013-08-07 14:19:00,
2013-08-07 10:25:00,78.6,68.9,30.22,SE,135,2.0,2.0,72,0.00,,,0.00,meteohub,2013-08-07 14:25:00,
2013-08-07 10:30:00,78.8,68.5,30.22,SE,135,0.0,3.0,71,0.00,,,0.00,meteohub,2013-08-07 14:30:00,
2013-08-07 10:35:00,79.3,69.4,30.22,SE,135,0.0,3.0,72,0.00,,,0.00,meteohub,2013-08-07 14:35:00,
2013-08-07 10:41:00,79.7,69.4,30.22,SE,135,0.0,3.0,71,0.00,,,0.00,meteohub,2013-08-07 14:41:00,
2013-08-07 10:46:00,79.9,69.6,30.22,SE,135,4.0,4.0,71,0.00,,,0.00,meteohub,2013-08-07 14:46:00,
2013-08-07 10:51:00,79.7,68.5,30.21,SE,135,2.0,4.0,69,0.00,,,0.00,meteohub,2013-08-07 14:51:00,
2013-08-07 10:56:00,80.1,68.9,30.22,SE,135,2.0,4.0,69,0.00,,,0.00,meteohub,2013-08-07 14:56:00,
2013-08-07 11:01:00,80.8,69.3,30.22,SE,135,2.0,4.0,68,0.00,,,0.00,meteohub,2013-08-07 15:01:00,
2013-08-07 11:06:00,81.1,68.7,30.22,SW,225,2.0,4.0,66,0.00,,,0.00,meteohub,2013-08-07 15:06:00,
2013-08-07 11:11:00,81.3,68.9,30.22,SE,135,0.0,3.0,66,0.00,,,0.00,meteohub,2013-08-07 15:11:00,
2013-08-07 11:17:00,81.7,69.3,30.22,SE,135,2.0,3.0,66,0.00,,,0.00,meteohub,2013-08-07 15:17:00,
2013-08-07 11:22:00,82.2,69.3,30.22,SE,135,3.0,3.0,65,0.00,,,0.00,meteohub,2013-08-07 15:22:00,
2013-08-07 11:27:00,82.0,68.2,30.22,SE,135,2.0,3.0,63,0.00,,,0.00,meteohub,2013-08-07 15:27:00,
2013-08-07 11:33:00,82.0,68.7,30.22,SE,135,0.0,3.0,64,0.00,,,0.00,meteohub,2013-08-07 15:33:00,
2013-08-07 11:38:00,82.4,68.5,30.22,SE,135,2.0,3.0,63,0.00,,,0.00,meteohub,2013-08-07 15:38:00,
2013-08-07 11:43:00,82.6,68.2,30.22,SE,135,3.0,4.0,62,0.00,,,0.00,meteohub,2013-08-07 15:43:00,
2013-08-07 11:48:00,82.2,68.4,30.22,SE,135,0.0,4.0,63,0.00,,,0.00,meteohub,2013-08-07 15:48:00,
2013-08-07 11:53:00,82.8,68.9,30.21,SE,135,2.0,4.0,63,0.00,,,0.00,meteohub,2013-08-07 15:53:00,
2013-08-07 11:58:00,82.8,68.4,30.22,SE,135,3.0,3.0,62,0.00,,,0.00,meteohub,2013-08-07 15:58:00,
2013-08-07 12:03:00,82.8,68.9,30.22,SE,135,1.0,4.0,63,0.00,,,0.00,meteohub,2013-08-07 16:03:00,
2013-08-07 12:09:00,82.9,68.5,30.22,SE,135,2.0,4.0,62,0.00,,,0.00,meteohub,2013-08-07 16:09:00,
2013-08-07 12:14:00,83.3,68.4,30.22,SE,135,2.0,4.0,61,0.00,,,0.00,meteohub,2013-08-07 16:14:00,
2013-08-07 12:19:00,83.5,67.6,30.22,SE,135,3.0,3.0,59,0.00,,,0.00,meteohub,2013-08-07 16:19:00,
2013-08-07 12:24:00,83.7,68.4,30.22,SE,135,1.0,3.0,60,0.00,,,0.00,meteohub,2013-08-07 16:24:00,
2013-08-07 12:29:00,84.0,68.7,30.22,SE,135,2.0,3.0,60,0.00,,,0.00,meteohub,2013-08-07 16:29:00,
2013-08-07 12:34:00,83.8,68.0,30.22,SE,135,2.0,3.0,59,0.00,,,0.00,meteohub,2013-08-07 16:34:00,
2013-08-07 12:39:00,84.0,67.6,30.22,SE,135,1.0,3.0,58,0.00,,,0.00,meteohub,2013-08-07 16:39:00,
2013-08-07 12:44:00,84.2,66.7,30.22,SE,135,2.0,3.0,56,0.00,,,0.00,meteohub,2013-08-07 16:44:00,
2013-08-07 12:49:00,84.0,66.6,30.22,SE,135,3.0,3.0,56,0.00,,,0.00,meteohub,2013-08-07 16:49:00,
2013-08-07 12:54:00,84.2,66.7,30.22,SE,135,0.0,4.0,56,0.00,,,0.00,meteohub,2013-08-07 16:54:00,
2013-08-07 13:00:00,84.2,66.2,30.22,SE,135,0.0,4.0,55,0.00,,,0.00,meteohub,2013-08-07 17:00:00,
2013-08-07 13:05:00,84.4,65.8,30.22,SE,135,2.0,2.0,54,0.00,,,0.00,meteohub,2013-08-07 17:05:00,
2013-08-07 13:10:00,84.4,65.8,30.21,SE,135,2.0,2.0,54,0.00,,,0.00,meteohub,2013-08-07 17:10:00,
2013-08-07 13:15:00,84.2,66.2,30.21,SE,135,2.0,2.0,55,0.00,,,0.00,meteohub,2013-08-07 17:15:00,
2013-08-07 13:20:00,84.4,66.9,30.21,South,180,2.0,2.0,56,0.00,,,0.00,meteohub,2013-08-07 17:20:00,
2013-08-07 13:25:00,84.6,66.6,30.20,South,180,0.0,3.0,55,0.00,,,0.00,meteohub,2013-08-07 17:25:00,
2013-08-07 13:30:00,84.6,67.1,30.20,South,180,0.0,3.0,56,0.00,,,0.00,meteohub,2013-08-07 17:30:00,
2013-08-07 13:36:00,84.9,66.9,30.20,South,180,2.0,2.0,55,0.00,,,0.00,meteohub,2013-08-07 17:36:00,
2013-08-07 13:41:00,84.9,66.9,30.20,South,180,1.0,2.0,55,0.00,,,0.00,meteohub,2013-08-07 17:41:00,
2013-08-07 13:46:00,84.9,66.4,30.20,South,180,0.0,2.0,54,0.00,,,0.00,meteohub,2013-08-07 17:46:00,
2013-08-07 13:51:00,85.1,66.6,30.19,South,180,0.0,3.0,54,0.00,,,0.00,meteohub,2013-08-07 17:51:00,
2013-08-07 13:56:00,85.3,66.2,30.20,South,180,1.0,3.0,53,0.00,,,0.00,meteohub,2013-08-07 17:56:00,
2013-08-07 14:01:00,85.3,64.6,30.19,South,180,2.0,3.0,50,0.00,,,0.00,meteohub,2013-08-07 18:01:00,
2013-08-07 14:06:00,85.3,64.6,30.20,South,180,2.0,3.0,50,0.00,,,0.00,meteohub,2013-08-07 18:06:00,
2013-08-07 14:12:00,85.3,65.1,30.19,South,180,2.0,3.0,51,0.00,,,0.00,meteohub,2013-08-07 18:12:00,
2013-08-07 14:17:00,84.9,65.3,30.19,South,180,2.0,3.0,52,0.00,,,0.00,meteohub,2013-08-07 18:17:00,
2013-08-07 14:22:00,84.9,65.8,30.19,South,180,0.0,4.0,53,0.00,,,0.00,meteohub,2013-08-07 18:22:00,
2013-08-07 14:27:00,85.1,66.0,30.19,South,180,2.0,4.0,53,0.00,,,0.00,meteohub,2013-08-07 18:27:00,
2013-08-07 14:32:00,85.1,65.5,30.19,SE,135,0.0,4.0,52,0.00,,,0.00,meteohub,2013-08-07 18:32:00,
2013-08-07 14:37:00,84.9,65.3,30.19,SE,135,2.0,4.0,52,0.00,,,0.00,meteohub,2013-08-07 18:37:00,
2013-08-07 14:42:00,84.9,65.8,30.19,SE,135,2.0,4.0,53,0.00,,,0.00,meteohub,2013-08-07 18:42:00,
2013-08-07 14:47:00,84.7,65.1,30.19,SE,135,0.0,2.0,52,0.00,,,0.00,meteohub,2013-08-07 18:47:00,
2013-08-07 14:52:00,84.6,64.4,30.18,SE,135,2.0,2.0,51,0.00,,,0.00,meteohub,2013-08-07 18:52:00,
2013-08-07 14:57:00,84.6,64.9,30.18,SE,135,2.0,3.0,52,0.00,,,0.00,meteohub,2013-08-07 18:57:00,
2013-08-07 15:02:00,84.6,64.9,30.19,SE,135,0.0,3.0,52,0.00,,,0.00,meteohub,2013-08-07 19:02:00,
2013-08-07 15:08:00,84.6,66.0,30.18,SE,135,0.0,3.0,54,0.00,,,0.00,meteohub,2013-08-07 19:08:00,
2013-08-07 15:13:00,84.6,66.6,30.18,SE,135,0.0,2.0,55,0.00,,,0.00,meteohub,2013-08-07 19:13:00,
2013-08-07 15:18:00,84.7,67.3,30.18,SE,135,1.0,2.0,56,0.00,,,0.00,meteohub,2013-08-07 19:18:00,
2013-08-07 15:23:00,84.7,66.2,30.18,SE,135,2.0,2.0,54,0.00,,,0.00,meteohub,2013-08-07 19:23:00,
2013-08-07 15:28:00,84.9,66.4,30.18,SE,135,0.0,2.0,54,0.00,,,0.00,meteohub,2013-08-07 19:28:00,
2013-08-07 15:33:00,84.9,66.4,30.18,SE,135,1.0,2.0,54,0.00,,,0.00,meteohub,2013-08-07 19:33:00,
2013-08-07 15:38:00,84.7,66.7,30.18,SE,135,0.0,2.0,55,0.00,,,0.00,meteohub,2013-08-07 19:38:00,
2013-08-07 15:43:00,84.6,66.6,30.17,NW,315,0.0,2.0,55,0.00,,,0.00,meteohub,2013-08-07 19:43:00,
2013-08-07 15:48:00,84.4,66.9,30.17,NW,315,0.0,2.0,56,0.00,,,0.00,meteohub,2013-08-07 19:48:00,
2013-08-07 15:54:00,84.4,66.9,30.17,NW,315,0.0,2.0,56,0.00,,,0.00,meteohub,2013-08-07 19:54:00,
2013-08-07 15:59:00,84.4,67.5,30.17,NW,315,0.0,2.0,57,0.00,,,0.00,meteohub,2013-08-07 19:59:00,
2013-08-07 16:04:00,84.2,66.7,30.17,NW,315,0.0,2.0,56,0.00,,,0.00,meteohub,2013-08-07 20:04:00,
2013-08-07 16:09:00,84.4,66.4,30.17,NW,315,0.0,1.0,55,0.00,,,0.00,meteohub,2013-08-07 20:09:00,
2013-08-07 16:14:00,84.4,65.8,30.17,SE,135,2.0,2.0,54,0.00,,,0.00,meteohub,2013-08-07 20:14:00,
2013-08-07 16:20:00,84.2,65.7,30.16,SE,135,2.0,2.0,54,0.00,,,0.00,meteohub,2013-08-07 20:20:00,
2013-08-07 16:25:00,84.4,65.8,30.16,SE,135,2.0,3.0,54,0.00,,,0.00,meteohub,2013-08-07 20:25:00,
2013-08-07 16:30:00,84.4,66.4,30.16,North,0,0.0,3.0,55,0.00,,,0.00,meteohub,2013-08-07 20:30:00,
2013-08-07 16:35:00,84.6,67.1,30.16,North,0,0.0,2.0,56,0.00,,,0.00,meteohub,2013-08-07 20:35:00,
2013-08-07 16:40:00,84.6,66.6,30.16,South,180,0.0,2.0,55,0.00,,,0.00,meteohub,2013-08-07 20:40:00,
2013-08-07 16:45:00,84.6,67.1,30.16,NE,45,2.0,0.0,56,0.00,,,0.00,meteohub,2013-08-07 20:45:00,
2013-08-07 16:50:00,84.6,67.1,30.16,NE,45,0.0,2.0,56,0.00,,,0.00,meteohub,2013-08-07 20:50:00,
2013-08-07 16:55:00,84.7,66.2,30.16,SE,135,2.0,2.0,54,0.00,,,0.00,meteohub,2013-08-07 20:55:00,
2013-08-07 17:00:00,85.1,67.1,30.15,SE,135,2.0,3.0,55,0.00,,,0.00,meteohub,2013-08-07 21:00:00,
2013-08-07 17:05:00,85.3,66.7,30.15,SE,135,0.0,3.0,54,0.00,,,0.00,meteohub,2013-08-07 21:05:00,
2013-08-07 17:10:00,85.5,66.9,30.16,SE,135,0.0,2.0,54,0.00,,,0.00,meteohub,2013-08-07 21:10:00,
2013-08-07 17:16:00,85.5,67.5,30.16,SE,135,0.0,2.0,55,0.00,,,0.00,meteohub,2013-08-07 21:16:00,
2013-08-07 17:21:00,85.6,67.6,30.16,NE,45,1.0,2.0,55,0.00,,,0.00,meteohub,2013-08-07 21:21:00,
2013-08-07 17:26:00,85.6,67.1,30.16,South,180,1.0,2.0,54,0.00,,,0.00,meteohub,2013-08-07 21:26:00,
2013-08-07 17:31:00,85.6,67.1,30.16,South,180,0.0,2.0,54,0.00,,,0.00,meteohub,2013-08-07 21:31:00,
2013-08-07 17:36:00,86.0,67.5,30.16,South,180,2.0,2.0,54,0.00,,,0.00,meteohub,2013-08-07 21:36:00,
2013-08-07 17:41:00,86.2,67.1,30.15,South,180,1.0,2.0,53,0.00,,,0.00,meteohub,2013-08-07 21:41:00,
2013-08-07 17:46:00,86.2,66.6,30.15,WNW,293,2.0,2.0,52,0.00,,,0.00,meteohub,2013-08-07 21:46:00,
2013-08-07 17:51:00,86.0,66.4,30.15,WNW,293,2.0,2.0,52,0.00,,,0.00,meteohub,2013-08-07 21:51:00,
2013-08-07 17:56:00,86.0,66.4,30.15,SE,135,4.0,4.0,52,0.00,,,0.00,meteohub,2013-08-07 21:56:00,
2013-08-07 18:01:00,86.0,66.9,30.15,SE,135,2.0,4.0,53,0.00,,,0.00,meteohub,2013-08-07 22:01:00,
2013-08-07 18:07:00,85.8,67.3,30.15,SE,135,2.0,4.0,54,0.00,,,0.00,meteohub,2013-08-07 22:07:00,
2013-08-07 18:12:00,85.5,67.5,30.15,SE,135,0.0,4.0,55,0.00,,,0.00,meteohub,2013-08-07 22:12:00,
2013-08-07 18:17:00,85.1,67.6,30.16,SE,135,0.0,2.0,56,0.00,,,0.00,meteohub,2013-08-07 22:17:00,
2013-08-07 18:22:00,84.9,66.9,30.15,SE,135,2.0,2.0,55,0.00,,,0.00,meteohub,2013-08-07 22:22:00,
2013-08-07 18:27:00,85.1,67.6,30.15,SE,135,2.0,2.0,56,0.00,,,0.00,meteohub,2013-08-07 22:27:00,
2013-08-07 18:33:00,85.3,67.3,30.15,SE,135,2.0,2.0,55,0.00,,,0.00,meteohub,2013-08-07 22:33:00,
2013-08-07 18:38:00,85.5,68.0,30.15,SE,135,3.0,3.0,56,0.00,,,0.00,meteohub,2013-08-07 22:38:00,
2013-08-07 18:43:00,85.1,67.1,30.15,SE,135,2.0,3.0,55,0.00,,,0.00,meteohub,2013-08-07 22:43:00,
2013-08-07 18:48:00,84.9,66.9,30.14,SE,135,1.0,3.0,55,0.00,,,0.00,meteohub,2013-08-07 22:48:00,
2013-08-07 18:53:00,84.7,66.7,30.15,SE,135,0.0,3.0,55,0.00,,,0.00,meteohub,2013-08-07 22:53:00,
2013-08-07 18:58:00,84.6,66.6,30.15,SE,135,0.0,2.0,55,0.00,,,0.00,meteohub,2013-08-07 22:58:00,
2013-08-07 19:03:00,84.4,66.9,30.15,SE,135,0.0,2.0,56,0.00,,,0.00,meteohub,2013-08-07 23:03:00,
2013-08-07 19:09:00,84.0,67.1,30.14,SE,135,0.0,2.0,57,0.00,,,0.00,meteohub,2013-08-07 23:09:00,
2013-08-07 19:14:00,83.8,66.9,30.14,SE,135,0.0,2.0,57,0.00,,,0.00,meteohub,2013-08-07 23:14:00,
2013-08-07 19:19:00,83.5,66.6,30.14,SE,135,0.0,0.0,57,0.00,,,0.00,meteohub,2013-08-07 23:19:00,
2013-08-07 19:24:00,83.3,66.9,30.15,SE,135,0.0,0.0,58,0.00,,,0.00,meteohub,2013-08-07 23:24:00,
2013-08-07 19:29:00,83.1,66.7,30.15,SE,135,0.0,0.0,58,0.00,,,0.00,meteohub,2013-08-07 23:29:00,
2013-08-07 19:34:00,82.8,66.9,30.15,SE,135,0.0,0.0,59,0.00,,,0.00,meteohub,2013-08-07 23:34:00,
2013-08-07 19:39:00,82.4,67.1,30.15,SE,135,0.0,0.0,60,0.00,,,0.00,meteohub,2013-08-07 23:39:00,
2013-08-07 19:44:00,82.2,67.8,30.15,SE,135,0.0,0.0,62,0.00,,,0.00,meteohub,2013-08-07 23:44:00,
2013-08-07 19:50:00,81.9,68.0,30.15,SE,135,0.0,0.0,63,0.00,,,0.00,meteohub,2013-08-07 23:50:00,
2013-08-07 19:55:00,81.7,67.8,30.15,SE,135,0.0,0.0,63,0.00,,,0.00,meteohub,2013-08-07 23:55:00,
2013-08-07 20:00:00,81.5,67.6,30.15,SE,135,0.0,0.0,63,0.00,,,0.00,meteohub,2013-08-08 00:00:00,
2013-08-07 20:05:00,81.1,67.3,30.16,SE,135,0.0,0.0,63,0.00,,,0.00,meteohub,2013-08-08 00:05:00,
2013-08-07 20:10:00,81.0,67.1,30.16,SE,135,0.0,0.0,63,0.00,,,0.00,meteohub,2013-08-08 00:10:00,
2013-08-07 20:15:00,80.8,67.5,30.15,SE,135,0.0,0.0,64,0.00,,,0.00,meteohub,2013-08-08 00:15:00,
2013-08-07 20:20:00,80.6,67.8,30.15,SE,135,0.0,0.0,65,0.00,,,0.00,meteohub,2013-08-08 00:20:00,
2013-08-07 20:25:00,80.4,68.0,30.15,SE,135,0.0,0.0,66,0.00,,,0.00,meteohub,2013-08-08 00:25:00,
2013-08-07 20:30:00,80.2,67.8,30.16,SE,135,0.0,0.0,66,0.00,,,0.00,meteohub,2013-08-08 00:30:00,
2013-08-07 20:35:00,80.1,67.6,30.16,SE,135,0.0,0.0,66,0.00,,,0.00,meteohub,2013-08-08 00:35:00,
2013-08-07 20:41:00,80.1,68.2,30.16,SE,135,0.0,0.0,67,0.00,,,0.00,meteohub,2013-08-08 00:41:00,
2013-08-07 20:46:00,79.9,68.0,30.17,SE,135,0.0,0.0,67,0.00,,,0.00,meteohub,2013-08-08 00:46:00,
2013-08-07 20:51:00,79.7,67.8,30.16,SE,135,0.0,0.0,67,0.00,,,0.00,meteohub,2013-08-08 00:51:00,
2013-08-07 20:53:00,79.7,68.2,30.16,SE,135,0.0,0.0,68,0.00,,,0.00,meteohub,2013-08-08 00:53:00,
2013-08-07 20:58:00,79.5,68.5,30.16,SE,135,0.0,0.0,69,0.00,,,0.00,meteohub,2013-08-08 00:58:00,
2013-08-07 21:04:00,79.5,68.5,30.16,SE,135,0.0,0.0,69,0.00,,,0.00,meteohub,2013-08-08 01:04:00,
2013-08-07 21:09:00,79.3,68.4,30.16,SE,135,0.0,0.0,69,0.00,,,0.00,meteohub,2013-08-08 01:09:00,
2013-08-07 21:14:00,79.2,68.2,30.16,SE,135,0.0,0.0,69,0.00,,,0.00,meteohub,2013-08-08 01:14:00,
2013-08-07 21:19:00,79.2,68.5,30.16,SE,135,0.0,0.0,70,0.00,,,0.00,meteohub,2013-08-08 01:19:00,
2013-08-07 21:24:00,79.0,68.4,30.16,SE,135,0.0,0.0,70,0.00,,,0.00,meteohub,2013-08-08 01:24:00,
2013-08-07 21:29:00,79.0,68.4,30.16,SE,135,0.0,0.0,70,0.00,,,0.00,meteohub,2013-08-08 01:29:00,
2013-08-07 21:34:00,79.0,68.4,30.16,SE,135,0.0,0.0,70,0.00,,,0.00,meteohub,2013-08-08 01:34:00,
2013-08-07 21:39:00,79.0,68.7,30.16,SE,135,0.0,0.0,71,0.00,,,0.00,meteohub,2013-08-08 01:39:00,
2013-08-07 21:45:00,79.0,68.7,30.17,SE,135,0.0,0.0,71,0.00,,,0.00,meteohub,2013-08-08 01:45:00,
2013-08-07 21:50:00,78.8,68.5,30.17,SE,135,0.0,0.0,71,0.00,,,0.00,meteohub,2013-08-08 01:50:00,
2013-08-07 21:55:00,78.8,69.1,30.17,SE,135,0.0,0.0,72,0.00,,,0.00,meteohub,2013-08-08 01:55:00,
2013-08-07 22:00:00,79.0,68.7,30.17,SE,135,0.0,2.0,71,0.00,,,0.00,meteohub,2013-08-08 02:00:00,
2013-08-07 22:05:00,79.2,68.9,30.17,SE,135,0.0,2.0,71,0.00,,,0.00,meteohub,2013-08-08 02:05:00,
2013-08-07 22:10:00,79.2,68.5,30.17,SE,135,0.0,2.0,70,0.00,,,0.00,meteohub,2013-08-08 02:10:00,
2013-08-07 22:15:00,79.2,68.2,30.17,SE,135,0.0,2.0,69,0.00,,,0.00,meteohub,2013-08-08 02:15:00,
2013-08-07 22:20:00,79.2,68.2,30.17,SE,135,2.0,2.0,69,0.00,,,0.00,meteohub,2013-08-08 02:20:00,
2013-08-07 22:25:00,79.2,68.2,30.17,SE,135,2.0,2.0,69,0.00,,,0.00,meteohub,2013-08-08 02:25:00,
2013-08-07 22:30:00,79.2,68.2,30.18,SE,135,1.0,2.0,69,0.00,,,0.00,meteohub,2013-08-08 02:30:00,
2013-08-07 22:35:00,79.2,67.6,30.18,SE,135,0.0,2.0,68,0.00,,,0.00,meteohub,2013-08-08 02:35:00,
2013-08-07 22:40:00,79.0,68.0,30.18,SE,135,0.0,2.0,69,0.00,,,0.00,meteohub,2013-08-08 02:40:00,
2013-08-07 22:46:00,79.0,68.0,30.18,SE,135,0.0,2.0,69,0.00,,,0.00,meteohub,2013-08-08 02:46:00,
2013-08-07 22:51:00,79.0,68.0,30.18,SE,135,2.0,0.0,69,0.00,,,0.00,meteohub,2013-08-08 02:51:00,
2013-08-07 22:56:00,78.8,67.8,30.18,SE,135,2.0,2.0,69,0.00,,,0.00,meteohub,2013-08-08 02:56:00,
2013-08-07 23:01:00,78.8,67.8,30.18,SE,135,2.0,2.0,69,0.00,,,0.00,meteohub,2013-08-08 03:01:00,
2013-08-07 23:06:00,78.8,67.8,30.17,SE,135,0.0,2.0,69,0.00,,,0.00,meteohub,2013-08-08 03:06:00,
2013-08-07 23:11:00,78.6,68.4,30.17,SE,135,0.0,2.0,71,0.00,,,0.00,meteohub,2013-08-08 03:11:00,
2013-08-07 23:16:00,78.6,68.4,30.18,SE,135,0.0,2.0,71,0.00,,,0.00,meteohub,2013-08-08 03:16:00,
2013-08-07 23:21:00,78.6,68.4,30.18,SE,135,0.0,0.0,71,0.00,,,0.00,meteohub,2013-08-08 03:21:00,
2013-08-07 23:26:00,78.4,68.2,30.17,SE,135,0.0,0.0,71,0.00,,,0.00,meteohub,2013-08-08 03:26:00,
2013-08-07 23:32:00,78.4,68.2,30.18,SE,135,2.0,0.0,71,0.00,,,0.00,meteohub,2013-08-08 03:32:00,
2013-08-07 23:37:00,78.4,68.2,30.17,SE,135,2.0,2.0,71,0.00,,,0.00,meteohub,2013-08-08 03:37:00,
2013-08-07 23:42:00,78.3,68.0,30.17,SE,135,0.0,2.0,71,0.00,,,0.00,meteohub,2013-08-08 03:42:00,
2013-08-07 23:47:00,78.3,68.0,30.17,SE,135,0.0,2.0,71,0.00,,,0.00,meteohub,2013-08-08 03:47:00,
2013-08-07 23:52:00,78.3,68.0,30.17,SE,135,0.0,2.0,71,0.00,,,0.00,meteohub,2013-08-08 03:52:00,
2013-08-07 23:57:00,78.1,68.4,30.18,SE,135,0.0,1.0,72,0.00,,,0.00,meteohub,2013-08-08 03:57:00,